TimeIST,TemperatureF,Dew PointF,Humidity,Sea Level PressureIn,VisibilityMPH,Wind Direction,Wind SpeedMPH,Gust SpeedMPH,PrecipitationIn,Events,Conditions,WindDirDegrees,DateUTC
12:00 AM,44.6,41.0,87,29.65,6.2,WNW,16.1,-,N/A,,Mostly Cloudy,290,2012-10-11 23:00:00
12:30 AM,42.8,39.2,87,29.65,6.2,West,13.8,-,N/A,,Mostly Cloudy,280,2012-10-11 23:30:00
1:00 AM,42,39,85,29.67,19,West,13.4,,,,Mostly Cloudy,270,2012-10-12 00:00:00
1:00 AM,42.8,39.2,87,29.65,6.2,West,12.7,-,N/A,,Mostly Cloudy,270,2012-10-12 00:00:00
1:30 AM,41.0,39.2,93,29.65,6.2,West,11.5,-,N/A,,Mostly Cloudy,270,2012-10-12 00:30:00
2:00 AM,41.0,39.2,93,29.65,6.2,West,10.4,-,N/A,,Mostly Cloudy,270,2012-10-12 01:00:00
2:30 AM,41.0,39.2,93,29.65,6.2,West,12.7,-,N/A,,Mostly Cloudy,270,2012-10-12 01:30:00
3:00 AM,41.0,37.4,87,29.65,6.2,West,13.8,-,N/A,,Mostly Cloudy,270,2012-10-12 02:00:00
3:30 AM,41.0,37.4,87,29.65,6.2,West,11.5,-,N/A,,Mostly Cloudy,280,2012-10-12 02:30:00
4:00 AM,39.2,37.4,93,29.65,6.2,West,10.4,-,N/A,,Scattered Clouds,280,2012-10-12 03:00:00
4:30 AM,39.2,37.4,93,29.65,6.2,West,11.5,-,N/A,,Scattered Clouds,270,2012-10-12 03:30:00
5:00 AM,39.2,37.4,93,29.65,6.2,West,11.5,-,N/A,,Scattered Clouds,270,2012-10-12 04:00:00
5:30 AM,39.2,37.4,93,29.65,6.2,West,13.8,-,N/A,,Scattered Clouds,260,2012-10-12 04:30:00
6:00 AM,39.2,37.4,93,29.65,6.2,West,12.7,-,N/A,,Scattered Clouds,260,2012-10-12 05:00:00
6:30 AM,39.2,37.4,93,29.68,6.2,West,15.0,-,N/A,,Scattered Clouds,260,2012-10-12 05:30:00
7:00 AM,38,37,97,29.70,19,West,15.7,,,,Scattered Clouds,260,2012-10-12 06:00:00
7:00 AM,37.4,37.4,100,29.68,6.2,West,17.3,-,N/A,,Scattered Clouds,260,2012-10-12 06:00:00
7:30 AM,39.2,37.4,93,29.68,6.2,West,17.3,-,N/A,,Partly Cloudy,260,2012-10-12 06:30:00
8:00 AM,39.2,37.4,93,29.68,6.2,West,13.8,-,N/A,,Partly Cloudy,260,2012-10-12 07:00:00
8:30 AM,39.2,37.4,93,29.68,6.2,West,12.7,-,N/A,,Partly Cloudy,260,2012-10-12 07:30:00
9:00 AM,41.0,37.4,87,29.68,6.2,West,18.4,-,N/A,,Partly Cloudy,260,2012-10-12 08:00:00
9:30 AM,41.0,39.2,93,29.68,6.2,West,17.3,-,N/A,,Partly Cloudy,260,2012-10-12 08:30:00
10:00 AM,42.8,39.2,87,29.71,6.2,WSW,12.7,-,N/A,,Partly Cloudy,250,2012-10-12 09:00:00
10:30 AM,44.6,41.0,87,29.71,6.2,West,15.0,-,N/A,,Partly Cloudy,260,2012-10-12 09:30:00
11:00 AM,46.4,41.0,81,29.68,6.2,West,17.3,-,N/A,,Partly Cloudy,260,2012-10-12 10:00:00
11:30 AM,48.2,41.0,76,29.68,6.2,West,17.3,-,N/A,,Partly Cloudy,260,2012-10-12 10:30:00
12:00 PM,50.0,42.8,76,29.68,6.2,West,18.4,-,N/A,,Partly Cloudy,260,2012-10-12 11:00:00
12:30 PM,50.0,41.0,71,29.68,6.2,West,18.4,-,N/A,,Partly Cloudy,270,2012-10-12 11:30:00
1:00 PM,51,42,61,29.70,31,West,17.9,,,,Scattered Clouds,260,2012-10-12 12:00:00
1:00 PM,51.8,41.0,67,29.68,6.2,WSW,17.3,-,N/A,,Partly Cloudy,250,2012-10-12 12:00:00
1:30 PM,51.8,41.0,67,29.68,6.2,West,17.3,-,N/A,,Scattered Clouds,270,2012-10-12 12:30:00
2:00 PM,53.6,41.0,62,29.68,6.2,West,17.3,-,N/A,,Partly Cloudy,260,2012-10-12 13:00:00
2:30 PM,51.8,39.2,62,29.68,6.2,West,18.4,-,N/A,,Partly Cloudy,260,2012-10-12 13:30:00
3:00 PM,51.8,41.0,67,29.65,6.2,West,13.8,-,N/A,,Partly Cloudy,270,2012-10-12 14:00:00
3:30 PM,53.6,39.2,58,29.65,6.2,West,13.8,-,N/A,,Partly Cloudy,260,2012-10-12 14:30:00
4:00 PM,51.8,37.4,58,29.65,6.2,West,12.7,-,N/A,,Partly Cloudy,260,2012-10-12 15:00:00
4:30 PM,51.8,41.0,67,29.68,6.2,WSW,11.5,-,N/A,,Partly Cloudy,250,2012-10-12 15:30:00
5:00 PM,50.0,42.8,76,29.65,6.2,West,11.5,-,N/A,,Scattered Clouds,260,2012-10-12 16:00:00
5:30 PM,48.2,41.0,76,29.68,6.2,WSW,10.4,-,N/A,,Scattered Clouds,240,2012-10-12 16:30:00
6:00 PM,46.4,41.0,81,29.65,6.2,WSW,8.1,-,N/A,,Scattered Clouds,240,2012-10-12 17:00:00
6:30 PM,46.4,41.0,81,29.68,6.2,WSW,6.9,-,N/A,,Scattered Clouds,240,2012-10-12 17:30:00
7:00 PM,45,40,78,29.69,31,SW,8.9,,,,Partly Cloudy,230,2012-10-12 18:00:00
7:00 PM,44.6,41.0,87,29.68,6.2,SW,9.2,-,N/A,,Scattered Clouds,230,2012-10-12 18:00:00
7:30 PM,42.8,39.2,87,29.65,6.2,SW,6.9,-,N/A,,Scattered Clouds,230,2012-10-12 18:30:00
8:00 PM,42.8,41.0,93,29.65,6.2,WSW,5.8,-,N/A,,Partly Cloudy,250,2012-10-12 19:00:00
8:30 PM,44.6,41.0,87,29.65,6.2,West,9.2,-,N/A,,Partly Cloudy,260,2012-10-12 19:30:00
9:00 PM,44.6,41.0,87,29.65,6.2,WSW,11.5,-,N/A,,Scattered Clouds,250,2012-10-12 20:00:00
9:30 PM,44.6,41.0,87,29.65,6.2,West,12.7,-,N/A,,Scattered Clouds,260,2012-10-12 20:30:00
10:00 PM,42.8,41.0,93,29.65,6.2,West,10.4,-,N/A,,Partly Cloudy,260,2012-10-12 21:00:00
10:30 PM,42.8,41.0,93,29.65,6.2,West,10.4,-,N/A,,Partly Cloudy,260,2012-10-12 21:30:00
11:00 PM,42.8,41.0,93,29.65,6.2,WSW,10.4,-,N/A,,Partly Cloudy,250,2012-10-12 22:00:00
11:30 PM,41.0,41.0,100,29.65,6.2,West,9.2,-,N/A,,Partly Cloudy,260,2012-10-12 22:30:00